Flag for U.S.A. Weather past 2 weeks in Minot, North Dakota, U.S.A.

Now
43 °F

Sunny.


Feels Like: 40 °F
Forecast: 35 / 57 °F
Wind: 5 mph from North

Location: Minot International Airport

Current Time: May 29, 2015 at 10:42:48 PM

Latest Report: May 29, 2015 at 9:54 PM


Visibility: 10 mi

Pressure: 30.33 "Hg

Humidity: 65%

Dew point: 32 °F

Location of MinotLocation

Historic Weather in Minot — Graph

°F

Minot temperature yesterday

Maximum temperature yesterday: 71 °F (at 3:54 PM)
Minimum temperature yesterday: 52 °F (at 10:54 PM)
Average temperature yesterday: 63 °F

Past Weeks' High & Low Weather Summary

 TemperatureHumidityPressure
High81 °F (May 26, 1:54 PM)97% (May 15, 3:54 AM)30.49 "Hg (May 15, 3:54 AM)
Low31 °F (May 17, 8:54 PM)18% (May 22, 4:54 PM)29.66 "Hg (May 16, 8:01 PM)
Average56 °F58%30.04 "Hg
* Reported May 14 8:54 PM — May 29 8:54 PM, Minot, Weather by CustomWeather, © 2015

Note: Actual official high and low records may vary slightly from our data, if they occured in-between our weather recording intervals... More about our weather records

Advertising

Minot weather history for previous 24 hours

 ConditionsComfort  
Time TempWeatherWind HumidityBarometerVisibility
8:54 PM
Fri, May 29
51 °FSunny.6 mph48%30.32 "Hg10 mi
7:54 PM55 °FSunny.13 mph40%30.30 "Hg10 mi
6:54 PM56 °FSunny.8 mph39%30.29 "Hg10 mi
5:54 PM57 °FSunny.14 mph39%30.29 "Hg10 mi
4:54 PM56 °FPassing clouds.8 mph42%30.29 "Hg10 mi
3:54 PM54 °FScattered clouds.12 mph45%30.29 "Hg10 mi
2:54 PM52 °FScattered clouds.10 mph50%30.30 "Hg10 mi
1:54 PM48 °FOvercast.14 mph59%30.32 "Hg10 mi
12:54 PM47 °FOvercast.15 mph61%30.32 "Hg10 mi
11:54 AM45 °FOvercast.15 mph65%30.32 "Hg10 mi
10:54 AM46 °FOvercast.17 mph61%30.30 "Hg10 mi
9:54 AM45 °FOvercast.17 mph65%30.28 "Hg10 mi
8:54 AM45 °FOvercast.16 mph65%30.26 "Hg10 mi
7:54 AM45 °FOvercast.18 mph68%30.22 "Hg10 mi
6:54 AM46 °FOvercast.15 mph66%30.20 "Hg10 mi
5:54 AM46 °FOvercast.15 mph71%30.18 "Hg10 mi
4:54 AM47 °FMostly cloudy.21 mph71%30.15 "Hg10 mi
3:54 AM47 °FOvercast.21 mph71%30.12 "Hg10 mi
2:54 AM49 °FOvercast.21 mph71%30.11 "Hg10 mi
1:54 AM49 °FOvercast.22 mph74%30.10 "Hg10 mi
12:54 AM50 °FMostly cloudy.24 mph74%30.09 "Hg10 mi
11:54 PM
Thu, May 28
52 °FLight rain. Overcast.20 mph77%30.05 "Hg10 mi
10:54 PM52 °FOvercast.22 mph80%30.02 "Hg10 mi
Weather by CustomWeather, © 2015

See weather overviewHow to use our weather pages